• In Belgium
  • List of Countries
  • For 7 days
  • Water Temperature
  • Satellite Maps
  • Weather Map
  • Weather Widgets
  • user-avatar
    Login

    Hourly Weather Buttenau

    Today, 25 November, Saturday

    Time Temperature Precipitation Wind Pressure Humidity
    00:00 +7°C° 0 mm 2 mps 713 mmHg 82%
    01:00 +7°C° 0 mm 2 mps 712 mmHg 81%
    02:00 +7°C° 0 mm 2 mps 711 mmHg 80%
    03:00 +7°C° 0 mm 2 mps 711 mmHg 79%
    04:00 +7°C° 0 mm 2 mps 710 mmHg 79%
    05:00 +6°C° 0.3 mm 2 mps 709 mmHg 80%
    06:00 +6°C° 0.3 mm 2 mps 709 mmHg 81%
    07:00 +6°C° 0.3 mm 2 mps 708 mmHg 82%
    08:00 +5°C° 1.6 mm 3 mps 709 mmHg 85%
    09:00 +5°C° 1.6 mm 3 mps 709 mmHg 89%
    10:00 +6°C° 1.6 mm 4 mps 710 mmHg 92%
    11:00 +6°C° 1.1 mm 4 mps 710 mmHg 90%
    12:00 +6°C° 1.1 mm 5 mps 711 mmHg 88%
    13:00 +6°C° 1.1 mm 5 mps 711 mmHg 86%
    14:00 +5°C° 0.2 mm 5 mps 711 mmHg 85%
    15:00 +5°C° 0.2 mm 4 mps 712 mmHg 84%
    16:00 +5°C° 0.2 mm 3 mps 712 mmHg 84%
    17:00 +4°C° 0.1 mm 3 mps 712 mmHg 86%
    18:00 +3°C° 0.1 mm 3 mps 713 mmHg 88%
    19:00 +3°C° 0.1 mm 2 mps 713 mmHg 90%
    20:00 +3°C° 0.3 mm 2 mps 714 mmHg 91%
    21:00 +2°C° 0.3 mm 3 mps 714 mmHg 91%
    22:00 +2°C° 0.3 mm 3 mps 714 mmHg 91%
    23:00 +2°C° 0.5 mm 3 mps 715 mmHg 91%

    Tomorrow, 26 November, Sunday

    Time Temperature Precipitation Wind Pressure Humidity
    00:00 +2°C° 0.5 mm 3 mps 715 mmHg 92%
    01:00 +1°C° 0.5 mm 3 mps 716 mmHg 92%
    02:00 +1°C° 0.6 mm 3 mps 716 mmHg 92%
    03:00 0°C° 0.6 mm 3 mps 717 mmHg 92%
    04:00 0°C° 0.6 mm 3 mps 717 mmHg 92%
    05:00 -1°C° 0.1 mm 2 mps 718 mmHg 92%
    06:00 -2°C° 0.1 mm 2 mps 718 mmHg 93%
    07:00 -3°C° 0.1 mm 2 mps 719 mmHg 94%
    08:00 -2°C° 0 mm 2 mps 719 mmHg 90%
    09:00 -2°C° 0 mm 2 mps 720 mmHg 86%
    10:00 -1°C° 0 mm 2 mps 721 mmHg 83%
    11:00 +1°C° 0 mm 2 mps 721 mmHg 79%
    12:00 +1°C° 0 mm 2 mps 721 mmHg 75%
    13:00 +2°C° 0 mm 2 mps 721 mmHg 71%
    14:00 +1°C° 0 mm 2 mps 721 mmHg 74%
    15:00 +1°C° 0 mm 2 mps 721 mmHg 78%
    16:00 -1°C° 0 mm 2 mps 721 mmHg 81%
    17:00 -1°C° 0 mm 2 mps 721 mmHg 82%
    18:00 -2°C° 0 mm 2 mps 722 mmHg 84%
    19:00 -3°C° 0 mm 2 mps 723 mmHg 86%
    20:00 -3°C° 0 mm 2 mps 723 mmHg 86%
    21:00 -3°C° 0 mm 2 mps 723 mmHg 86%
    22:00 -3°C° 0 mm 2 mps 723 mmHg 85%
    23:00 -4°C° 0 mm 2 mps 723 mmHg 85%

    Day after tomorrow, 27 November, Monday

    Time Temperature Precipitation Wind Pressure Humidity
    00:00 -4°C° 0 mm 2 mps 723 mmHg 86%
    01:00 -4°C° 0 mm 2 mps 723 mmHg 86%
    02:00 -2°C° 0 mm 1 mps 723 mmHg 86%
    03:00 -3°C° 0 mm 1 mps 723 mmHg 86%
    04:00 -3°C° 0 mm 1 mps 723 mmHg 86%
    05:00 -3°C° 0 mm 1 mps 723 mmHg 86%
    06:00 -3°C° 0 mm 1 mps 723 mmHg 85%
    07:00 -3°C° 0 mm 1 mps 724 mmHg 85%
    08:00 -2°C° 0 mm 1 mps 723 mmHg 81%
    09:00 -1°C° 0 mm 1 mps 723 mmHg 76%
    10:00 +1°C° 0 mm 1 mps 723 mmHg 72%
    11:00 +2°C° 0 mm 1 mps 723 mmHg 69%
    12:00 +3°C° 0 mm 1 mps 722 mmHg 66%
    13:00 +4°C° 0 mm 1 mps 722 mmHg 63%
    14:00 +3°C° 0 mm 1 mps 721 mmHg 67%
    15:00 +2°C° 0 mm 1 mps 721 mmHg 72%
    16:00 +1°C° 0 mm 0 mps 721 mmHg 76%
    17:00 +1°C° 0 mm 1 mps 721 mmHg 78%
    18:00 0°C° 0 mm 1 mps 720 mmHg 80%
    19:00 -1°C° 0 mm 1 mps 720 mmHg 82%
    20:00 -1°C° 0 mm 1 mps 720 mmHg 81%
    21:00 -1°C° 0 mm 1 mps 720 mmHg 80%
    22:00 -2°C° 0 mm 1 mps 720 mmHg 78%
    23:00 -1°C° 0 mm 1 mps 719 mmHg 77%

    28 November, Tuesday

    Time Temperature Precipitation Wind Pressure Humidity
    00:00 -1°C° 0 mm 1 mps 718 mmHg 76%
    01:00 -1°C° 0 mm 1 mps 718 mmHg 75%
    02:00 -1°C° 0 mm 1 mps 717 mmHg 74%
    03:00 -1°C° 0 mm 1 mps 717 mmHg 73%
    04:00 -3°C° 0 mm 2 mps 716 mmHg 72%
    05:00 -1°C° 0 mm 1 mps 716 mmHg 70%
    06:00 -1°C° 0 mm 1 mps 715 mmHg 69%
    07:00 -1°C° 0 mm 1 mps 715 mmHg 68%
    08:00 0°C° 0 mm 1 mps 714 mmHg 65%
    09:00 +2°C° 0 mm 1 mps 713 mmHg 62%
    10:00 +3°C° 0 mm 1 mps 713 mmHg 59%
    11:00 +4°C° 0 mm 1 mps 712 mmHg 58%
    12:00 +5°C° 0 mm 1 mps 711 mmHg 57%
    13:00 +6°C° 0 mm 1 mps 710 mmHg 55%
    14:00 +6°C° 0 mm 1 mps 710 mmHg 60%
    15:00 +5°C° 0 mm 1 mps 709 mmHg 64%
    16:00 +4°C° 0 mm 1 mps 709 mmHg 68%
    17:00 +4°C° 0 mm 1 mps 708 mmHg 69%
    18:00 +2°C° 0 mm 2 mps 708 mmHg 69%
    19:00 +1°C° 0 mm 2 mps 708 mmHg 70%
    20:00 +1°C° 0 mm 2 mps 708 mmHg 70%
    21:00 +1°C° 0 mm 2 mps 708 mmHg 70%
    22:00 +1°C° 0 mm 2 mps 707 mmHg 71%
    23:00 +1°C° 0 mm 2 mps 707 mmHg 72%

    29 November, Wednesday

    Time Temperature Precipitation Wind Pressure Humidity
    00:00 +1°C° 0 mm 2 mps 707 mmHg 74%
    01:00 +1°C° 0 mm 2 mps 707 mmHg 75%
    02:00 +1°C° 0.1 mm 2 mps 706 mmHg 77%
    03:00 +1°C° 0.1 mm 2 mps 706 mmHg 78%
    04:00 +1°C° 0.1 mm 2 mps 706 mmHg 79%
    05:00 +1°C° 0.2 mm 2 mps 706 mmHg 80%
    06:00 +1°C° 0.2 mm 2 mps 706 mmHg 81%
    07:00 +2°C° 0.2 mm 1 mps 705 mmHg 82%
    08:00 +3°C° 0.3 mm 1 mps 705 mmHg 82%
    09:00 +3°C° 0.3 mm 1 mps 706 mmHg 82%
    10:00 +3°C° 0.3 mm 1 mps 706 mmHg 83%
    11:00 +4°C° 0.5 mm 1 mps 705 mmHg 84%
    12:00 +4°C° 0.5 mm 1 mps 705 mmHg 85%
    13:00 +3°C° 0.5 mm 2 mps 705 mmHg 87%
    14:00 +3°C° 0.5 mm 1 mps 705 mmHg 88%
    15:00 +3°C° 0.5 mm 1 mps 705 mmHg 90%
    16:00 +2°C° 0.5 mm 1 mps 705 mmHg 91%
    17:00 +2°C° 0.2 mm 1 mps 705 mmHg 92%
    18:00 +1°C° 0.2 mm 1 mps 705 mmHg 92%
    19:00 0°C° 0.2 mm 1 mps 705 mmHg 93%
    20:00 0°C° 0.1 mm 1 mps 706 mmHg 92%
    21:00 -1°C° 0.1 mm 1 mps 706 mmHg 91%
    22:00 -2°C° 0.1 mm 0 mps 706 mmHg 90%
    23:00 -1°C° 0 mm 1 mps 706 mmHg 90%

    30 November, Thursday

    Time Temperature Precipitation Wind Pressure Humidity
    00:00 -2°C° 0 mm 1 mps 706 mmHg 90%
    01:00 -2°C° 0 mm 1 mps 706 mmHg 89%
    02:00 -2°C° 0 mm 1 mps 706 mmHg 90%
    03:00 -3°C° 0 mm 1 mps 706 mmHg 90%
    04:00 -3°C° 0 mm 1 mps 706 mmHg 90%
    05:00 -3°C° 0 mm 1 mps 706 mmHg 91%
    06:00 -3°C° 0 mm 1 mps 706 mmHg 91%
    07:00 -3°C° 0 mm 1 mps 707 mmHg 92%
    08:00 -2°C° 0.1 mm 1 mps 707 mmHg 90%
    09:00 -3°C° 0.1 mm 2 mps 708 mmHg 88%
    10:00 -2°C° 0.1 mm 2 mps 708 mmHg 86%
    11:00 -2°C° 0.3 mm 2 mps 709 mmHg 86%
    12:00 -1°C° 0.3 mm 3 mps 709 mmHg 86%
    13:00 -1°C° 0.3 mm 3 mps 709 mmHg 85%
    14:00 -1°C° 0.2 mm 3 mps 709 mmHg 86%
    15:00 -1°C° 0.2 mm 3 mps 710 mmHg 87%
    16:00 -1°C° 0.2 mm 3 mps 710 mmHg 88%
    17:00 -1°C° 0.1 mm 3 mps 711 mmHg 90%
    18:00 -2°C° 0.1 mm 3 mps 711 mmHg 91%
    19:00 -2°C° 0.1 mm 3 mps 711 mmHg 92%
    20:00 -2°C° 0.2 mm 3 mps 712 mmHg 91%
    21:00 -2°C° 0.2 mm 3 mps 712 mmHg 90%
    22:00 -2°C° 0.2 mm 3 mps 712 mmHg 88%
    23:00 -2°C° 0.3 mm 3 mps 712 mmHg 89%
    Show more